Regional Weather Roundup
Issued by NWS

Home | Current Version | Previous Version | Graphics & Text | Print | Product List | Glossary On
Versions: 1 2 3 4 5 6 7 8 9 10 11 12 13 14 15 16 17 18 19 20 21 22 23 24 25 26 27 28 29 30 31 32 33 34 35 36 37 38 39 40 41 42 43 44 45 46 47 48 49 50
000
ASUS43 KDMX 221806
RWRIA

WEATHER ROUNDUP FOR IOWA
NATIONAL WEATHER SERVICE DES MOINES IA
100 PM CDT THU JUN 22 2017

NOTE: "FAIR" INDICATES FEW OR NO CLOUDS BELOW 12,000 FEET WITH NO
SIGNIFICANT WEATHER AND/OR OBSTRUCTIONS TO VISIBILITY.

* - THESE STATIONS ARE NOT NWS STATIONS...THUS NOT UNDER NWS
QUALITY CONTROL.  THEY ALSO DO NOT REPORT WEATHER SUCH
AS PRECIPITATION OR FOG.

IAZ001>003-012>014-020>022-031>034-043>046-221900-
   NORTHWEST IOWA

CITY           SKY/WX    TMP DP  RH WIND       PRES   REMARKS
CARROLL *      SUNNY     86  66  51 S13       29.66F HX  88
CHEROKEE *     CLOUDY    79  64  60 NE18G24   29.69S HX  80
DENISON *      SUNNY     86  66  51 S10       29.67F HX  88
LE MARS *      CLOUDY    81  63  54 E16G26    29.69R HX  82
ORANGE CITY *  CLOUDY    77  61  57 E12G17    29.71R
SHELDON *      CLOUDY    77  61  57 E13G20    29.70R
SIOUX CITY     CLOUDY    84  68  58 NE20G25   29.65R HX  87
6HR MIN TEMP:  75; 6HR MAX TEMP:  87;

SPENCER        CLOUDY    81  63  54 NE21      29.70S HX  82
6HR MIN TEMP:  71; 6HR MAX TEMP:  81;

STORM LAKE *   CLOUDY    79  66  65 NE12      29.69S HX  81
$$

IAZ055>058-069>071-079>083-090>094-221900-
   SOUTHWEST IOWA

CITY           SKY/WX    TMP DP  RH WIND       PRES   REMARKS
ATLANTIC *     CLOUDY    82  66  57 S16G23    29.68F HX  85
AUDUBON *      MOSUNNY   84  68  58 S13       29.69F HX  87
CLARINDA *     CLOUDY    79  70  73 S12       29.72F HX  81
COUNCIL BLFS * SUNNY     82  70  65 S12       29.66F HX  86
CRESTON *      CLOUDY    79  66  65 S13       29.73F HX  81
HARLAN  *      SUNNY     82  66  57 S12G20    29.70F HX  85
LAMONI         CLOUDY    84  69  60 SW13      29.73F HX  88
6HR MIN TEMP:  70; 6HR MAX TEMP:  84;

RED OAK *      CLOUDY    84  68  58 S18       29.68F HX  87
SHENANDOAH *   CLOUDY    82  68  61 S14G20    29.67F HX  85
$$

IAZ047>049-059>061-072>074-084-221900-
   CENTRAL IOWA

CITY           SKY/WX    TMP DP  RH WIND       PRES   REMARKS
AMES           CLOUDY    81  70  69 S12       29.70F HX  84
6HR MIN TEMP:  72; 6HR MAX TEMP:  83; 6HR PCP:  0.17;

ANKENY *       PTSUNNY   79  72  78 CALM      29.72F HX  82
BOONE *        PTSUNNY   82  68  61 S13G20    29.69F HX  85
CHARITON *     PTSUNNY   86  68  54 S12G18    29.74R HX  89
DES MOINES     CLOUDY    79  68  69 S7        29.70F HX  81
                                      6HR PCP: TRACE;

GRINNELL*      LGT RAIN  77  69  76 S8        29.74F
KNOXVILLE *    CLOUDY    84  68  58 SW7       29.73S HX  87
MARSHALLTOWN   CLOUDY    75  70  84 S10       29.71F
6HR MIN TEMP:  69; 6HR MAX TEMP:  77; 6HR PCP:  0.08;

NEWTON *       CLOUDY    81  70  69 S9        29.72F HX  84
PELLA *        CLOUDY    86  67  54 S7        29.75S HX  88
PERRY *          N/A     86  63  46 S14G20    29.69F HX  87
$$

IAZ004>006-015-016-023>025-035-036-221900-
   NORTH CENTRAL IOWA

CITY           SKY/WX    TMP DP  RH WIND       PRES   REMARKS
ALGONA *       CLOUDY    75  70  83 E14G20    29.70S
CLARION *        N/A     81  70  69 S14       29.70S HX  84
ESTHERVILLE    CLOUDY    77  66  68 E20G28    29.69F
6HR MIN TEMP:  64; 6HR MAX TEMP:  77; 6HR PCP:  0.17;

FORT DODGE *   CLOUDY    84  64  51 SE9       29.68F HX  86
MASON CITY     CLOUDY    75  68  78 N8        29.73F
6HR MIN TEMP:  68; 6HR MAX TEMP:  78; 6HR PCP:  0.01;

FOREST CITY *  CLOUDY    75  61  60 NE5       29.72F
WEBSTER CITY * CLOUDY    81  68  65 VRB5      29.68S HX  83
IOWA FALLS *     N/A     82  68  62 S13       29.73R HX  85
$$

IAZ007>011-017>019-026>030-037>042-050>054-066-221900-
   NORTHEAST IOWA

CITY           SKY/WX    TMP DP  RH WIND       PRES   REMARKS
CEDAR RAPIDS   CLOUDY    77  72  84 E7        29.76F
6HR MIN TEMP:  70; 6HR MAX TEMP:  77;

CHARLES CITY * MOSUNNY   77  72  83 S10G17    29.75R
CLINTON *      CLOUDY    82  70  66 S10       29.78F HX  86
DECORAH *      CLOUDY    72  68  88 CALM      29.75R
DUBUQUE        CLOUDY    79  67  66 S14       29.77F HX  81
6HR MIN TEMP:  71; 6HR MAX TEMP:  80;

MONTICELLO *   CLOUDY    79  68  69 S14G20    29.76S HX  81
OELWEIN *      PTSUNNY   75  70  83 S15G22    29.74F
WATERLOO       MOSUNNY   76  68  76 S10       29.71F
6HR MIN TEMP:  70; 6HR MAX TEMP:  77; 6HR PCP: TRACE;

$$

IAZ064-065-067-068-078-221900-
   EAST CENTRAL IOWA

CITY           SKY/WX    TMP DP  RH WIND       PRES   REMARKS
DAVENPORT      MOSUNNY   83  69  62 S10G21    29.77F HX  86
6HR MIN TEMP:  73; 6HR MAX TEMP:  84;

IOWA CITY      MOSUNNY   85  69  58 S8        29.76F HX  89
6HR MIN TEMP:  72; 6HR MAX TEMP:  85;

MT. PLEASANT * MOSUNNY   86  68  54 SE13      29.75F HX  89
MUSCATINE *    MOSUNNY   90  70  51 S14       29.75F HX  95
QUAD CITIES    CLOUDY    86  69  56 S10       29.75F HX  90
6HR MIN TEMP:  74; 6HR MAX TEMP:  86;

$$

IAZ062-063-075>077-085>089-095>099-221900-
   SOUTHEAST IOWA

CITY           SKY/WX    TMP DP  RH WIND       PRES   REMARKS
BURLINGTON     CLOUDY    85  72  65 S15G21    29.77F HX  91
6HR MIN TEMP:  73; 6HR MAX TEMP:  86;

FAIRFIELD *    PTSUNNY   86  68  54 S13       29.75S HX  89
FORT MADISON * MOSUNNY   84  72  65 S13       29.77F HX  89
KEOKUK *       PTSUNNY   84  72  65 S14G23    29.76F HX  89
OSKALOOSA *      N/A     86  69  56 SW7       29.74S HX  90
CENTERVILLE *    N/A     86  68  54 S8G18     29.75F HX  89
OTTUMWA        PTSUNNY   87  70  56 VRB7      29.74F HX  92
6HR MIN TEMP:  73; 6HR MAX TEMP:  87;

WASHINGTON *   CLOUDY    84  70  61 S13G20    29.77S HX  88
$$

ABBREVIATIONS USED IN REMARKS
   TC - TEMPERATURES IN CELSIUS
  WCI - WIND CHILL INDEX
   HX - HEAT INDEX
  VSB - VISIBILITY
$$





USA.gov is the U.S. government's official web portal to all federal, state and local government web resources and services.